ペトリュー彗星

185P/Petriew (2018)

English version
Home page
Updated on August 28, 2018

---------------------------------------------------------------------

・ プロフィール

・ 写真集

・ 軌道要素

Epoch 2018 Feb. 11.0 TT = JDT 2458160.5
T 2018 Jan. 27.66968 TT                                 MPCW
q   0.9338178            (2000.0)            P               Q
n   0.18042830     Peri.  181.91852     +0.80939236     -0.57140533
a   3.1016987      Node   214.09919     +0.54197722     +0.81569359
e   0.6989334      Incl.   13.99417     +0.22615194     +0.09022150
P   5.46
From 1015 observations 2001 June 12-2018 Mar. 24, mean residual 0".7.
     Nongravitational parameters A1 = +0.04, A2 = +0.0156.

・ 星図

・ 光度変化

        m1 = 11.0 + 5 logΔ + 23.0 log r(t - 10)  [   ,140]  (              〜2018年 6月16日)
        m1 = 14.5 + 5 logΔ + 10.0 log r          [140,   ]  (2018年 6月16日〜              )

---------------------------------------------------------------------

軌道要素はM.P.E.C. 2018-F152に掲載されたものです。
星図はステラナビゲータ Ver.8 (アストロアーツ) で作成したものです。
光度グラフはComet for Windowsで作成したものです。

---------------------------------------------------------------------

Copyright(C) Seiichi Yoshida (comet@aerith.net). All rights reserved.